This is the latest recevied weather packets stored in our database for station/object AE6BH. If no packets are shown the sender has not sent any weather packets the latest 10 day(s).
| Time | Temp. | Humidity | Pressure | Rain* | Wind** | Luminosity | Snow |
|---|---|---|---|---|---|---|---|
| 1778310877 | 14.44° C | 86% | 1014.9 hPa | 0 mm | - | 0 W/m² | - |
| 1778310575 | 14.44° C | 86% | 1015 hPa | 0 mm | - | 0 W/m² | - |
| 1778310271 | 14.44° C | 86% | 1015.1 hPa | 0 mm | - | 0 W/m² | - |
| 1778309966 | 14.44° C | 86% | 1015 hPa | 0 mm | - | 0 W/m² | - |
| 1778309663 | 14.44° C | 86% | 1015.1 hPa | 0 mm | - | 0 W/m² | - |
| 1778309359 | 14.44° C | 86% | 1015 hPa | 0 mm | - | 0 W/m² | - |
| 1778309057 | 13.89° C | 86% | 1015.2 hPa | 0 mm | - | 0 W/m² | - |
| 1778308755 | 13.89° C | 86% | 1015.1 hPa | 0 mm | - | 0 W/m² | - |
| 1778308450 | 13.33° C | 86% | 1015.1 hPa | 0 mm | - | 0 W/m² | - |
| 1778308147 | 13.33° C | 86% | 1015.1 hPa | 0 mm | - | 0 W/m² | - |
| 1778307845 | 13.33° C | 85% | 1015.5 hPa | 0 mm | - | 0 W/m² | - |
| 1778307542 | 12.78° C | 85% | 1015.3 hPa | 0 mm | - | 0 W/m² | - |
| 1778307240 | 13.33° C | 84% | 1015.2 hPa | 0 mm | - | 0 W/m² | - |
| 1778306936 | 12.78° C | 84% | 1015.2 hPa | 0 mm | - | 0 W/m² | - |
| 1778306633 | 12.78° C | 83% | 1015.2 hPa | 0 mm | - | 0 W/m² | - |
| 1778306328 | 12.78° C | 83% | 1015.2 hPa | 0 mm | - | 0 W/m² | - |
| 1778306024 | 13.33° C | 83% | 1015 hPa | 0 mm | - | 0 W/m² | - |
| 1778305722 | 13.33° C | 83% | 1014.9 hPa | 0 mm | - | 0 W/m² | - |
| 1778305418 | 13.33° C | 83% | 1015.2 hPa | 0 mm | - | 0 W/m² | - |
| 1778305117 | 13.33° C | 83% | 1015.3 hPa | 0 mm | - | 0 W/m² | - |
| 1778304813 | 13.33° C | 83% | 1015.5 hPa | 0 mm | - | 0 W/m² | - |
| 1778304512 | 13.33° C | 82% | 1015.3 hPa | 0 mm | - | 0 W/m² | - |
| 1778304209 | 13.33° C | 82% | 1015.3 hPa | 0 mm | - | 0 W/m² | - |
| 1778303907 | 13.89° C | 82% | 1015.5 hPa | 0 mm | - | 0 W/m² | - |
| 1778303605 | 13.89° C | 82% | 1015.3 hPa | 0 mm | - | 0 W/m² | - |
* Rain latest hour (hover to see other rain measurements)
** Current wind speed in m/s (hover to see current wind gust speed)